Location: Unspecified
(0.0000°N, 0.0000°E)
Time: 09:07:52
(UTC+00:00)

BlueWalker 3 - Pass Details

Date: 17 April 2026
Orbit: 450 x 457 km, 53.2° (Epoch: 10 April)

Event Time Altitude Azimuth Distance (km) Brightness Sun altitude
Rises 20:04:22 0° 302° (WNW) 2,454 6.5 -30.6°
Reaches altitude 10° 20:06:55 10° 283° (WNW) 1,584 5.3 -31.2°
Enters shadow 20:07:58 15° 269° (W) 1,312 4.8 -31.5°
